• In Norway
  • List of Countries
  • For 7 days
  • Water Temperature
  • Satellite Maps
  • Weather Map
  • Weather Widgets
  • user-avatar
    Login

    Hourly Weather Biskira

    Today, 25 September, Tuesday

    Time Temperature Precipitation Wind Pressure Humidity
    00:00 +31°C° 0 mm 1 mps 755 mmHg 36%
    01:00 +31°C° 0 mm 1 mps 755 mmHg 37%
    02:00 +30°C° 0 mm 1 mps 755 mmHg 38%
    03:00 +30°C° 0 mm 1 mps 755 mmHg 40%
    04:00 +30°C° 0 mm 1 mps 755 mmHg 40%
    05:00 +29°C° 0 mm 1 mps 755 mmHg 41%
    06:00 +29°C° 0 mm 1 mps 755 mmHg 42%
    07:00 +30°C° 0 mm 2 mps 756 mmHg 39%
    08:00 +33°C° 0 mm 3 mps 756 mmHg 36%
    09:00 +34°C° 0 mm 3 mps 756 mmHg 34%
    10:00 +34°C° 0 mm 3 mps 756 mmHg 32%
    11:00 +35°C° 0 mm 3 mps 756 mmHg 30%
    12:00 +36°C° 0 mm 3 mps 756 mmHg 29%
    13:00 +36°C° 0 mm 2 mps 755 mmHg 28%
    14:00 +36°C° 0 mm 2 mps 755 mmHg 27%
    15:00 +36°C° 0 mm 2 mps 754 mmHg 27%
    16:00 +36°C° 0 mm 2 mps 754 mmHg 28%
    17:00 +36°C° 0 mm 2 mps 754 mmHg 29%
    18:00 +35°C° 0 mm 2 mps 755 mmHg 30%
    19:00 +35°C° 0 mm 2 mps 755 mmHg 32%
    20:00 +34°C° 0 mm 3 mps 755 mmHg 34%
    21:00 +33°C° 0 mm 3 mps 756 mmHg 36%
    22:00 +33°C° 0 mm 3 mps 756 mmHg 38%
    23:00 +33°C° 0 mm 3 mps 756 mmHg 39%

    Tomorrow, 26 September, Wednesday

    Time Temperature Precipitation Wind Pressure Humidity
    00:00 +31°C° 0 mm 3 mps 756 mmHg 41%
    01:00 +30°C° 0.3 mm 3 mps 756 mmHg 44%
    02:00 +30°C° 0.3 mm 3 mps 756 mmHg 47%
    03:00 +29°C° 0.3 mm 3 mps 756 mmHg 49%
    04:00 +29°C° 0.9 mm 2 mps 756 mmHg 53%
    05:00 +28°C° 0.9 mm 2 mps 756 mmHg 56%
    06:00 +28°C° 0.9 mm 2 mps 757 mmHg 60%
    07:00 +28°C° 0.3 mm 2 mps 757 mmHg 58%
    08:00 +29°C° 0.3 mm 3 mps 757 mmHg 56%
    09:00 +30°C° 0.3 mm 3 mps 758 mmHg 54%
    10:00 +30°C° 0.4 mm 3 mps 757 mmHg 51%
    11:00 +31°C° 0.4 mm 2 mps 757 mmHg 48%
    12:00 +32°C° 0.4 mm 2 mps 757 mmHg 45%
    13:00 +32°C° 0.3 mm 2 mps 757 mmHg 44%
    14:00 +32°C° 0.3 mm 1 mps 756 mmHg 42%
    15:00 +33°C° 0.3 mm 1 mps 756 mmHg 40%
    16:00 +32°C° 0 mm 1 mps 756 mmHg 40%
    17:00 +32°C° 0 mm 2 mps 756 mmHg 39%
    18:00 +32°C° 0 mm 2 mps 757 mmHg 39%
    19:00 +33°C° 0 mm 3 mps 757 mmHg 41%
    20:00 +31°C° 0 mm 3 mps 758 mmHg 43%
    21:00 +32°C° 0 mm 4 mps 758 mmHg 45%
    22:00 +30°C° 0 mm 5 mps 758 mmHg 49%
    23:00 +29°C° 0 mm 6 mps 758 mmHg 53%

    Day after tomorrow, 27 September, Thursday

    Time Temperature Precipitation Wind Pressure Humidity
    00:00 +28°C° 0 mm 7 mps 759 mmHg 57%
    01:00 +28°C° 0.1 mm 6 mps 759 mmHg 59%
    02:00 +27°C° 0.1 mm 5 mps 759 mmHg 60%
    03:00 +27°C° 0.1 mm 4 mps 759 mmHg 62%
    04:00 +27°C° 0.1 mm 4 mps 759 mmHg 63%
    05:00 +26°C° 0.1 mm 3 mps 759 mmHg 64%
    06:00 +26°C° 0.1 mm 3 mps 759 mmHg 65%
    07:00 +27°C° 0 mm 3 mps 760 mmHg 62%
    08:00 +27°C° 0 mm 3 mps 760 mmHg 60%
    09:00 +28°C° 0 mm 4 mps 760 mmHg 57%
    10:00 +28°C° 0.1 mm 3 mps 760 mmHg 55%
    11:00 +29°C° 0.1 mm 3 mps 759 mmHg 53%
    12:00 +29°C° 0.1 mm 3 mps 759 mmHg 51%
    13:00 +29°C° 0.1 mm 2 mps 758 mmHg 50%
    14:00 +29°C° 0.1 mm 2 mps 758 mmHg 49%
    15:00 +30°C° 0.1 mm 2 mps 757 mmHg 47%
    16:00 +30°C° 0.1 mm 2 mps 757 mmHg 48%
    17:00 +29°C° 0.1 mm 2 mps 757 mmHg 48%
    18:00 +29°C° 0.1 mm 2 mps 757 mmHg 49%
    19:00 +29°C° 0 mm 2 mps 757 mmHg 50%
    20:00 +29°C° 0 mm 2 mps 758 mmHg 51%
    21:00 +28°C° 0 mm 2 mps 758 mmHg 53%
    22:00 +28°C° 0 mm 2 mps 757 mmHg 54%
    23:00 +28°C° 0 mm 1 mps 757 mmHg 55%

    28 September, Friday

    Time Temperature Precipitation Wind Pressure Humidity
    00:00 +27°C° 0 mm 1 mps 757 mmHg 56%
    01:00 +27°C° 0 mm 2 mps 756 mmHg 56%
    02:00 +27°C° 0 mm 2 mps 756 mmHg 57%
    03:00 +26°C° 0 mm 3 mps 756 mmHg 58%
    04:00 +26°C° 0 mm 3 mps 756 mmHg 58%
    05:00 +25°C° 0 mm 3 mps 756 mmHg 59%
    06:00 +25°C° 0 mm 3 mps 756 mmHg 59%
    07:00 +25°C° 0 mm 3 mps 756 mmHg 57%
    08:00 +26°C° 0 mm 3 mps 756 mmHg 54%
    09:00 +26°C° 0 mm 3 mps 756 mmHg 52%
    10:00 +27°C° 0 mm 2 mps 756 mmHg 50%
    11:00 +28°C° 0 mm 2 mps 755 mmHg 48%
    12:00 +29°C° 0 mm 2 mps 755 mmHg 46%
    13:00 +29°C° 0 mm 2 mps 754 mmHg 43%
    14:00 +30°C° 0 mm 1 mps 754 mmHg 41%
    15:00 +30°C° 0 mm 1 mps 753 mmHg 39%
    16:00 +30°C° 0 mm 1 mps 753 mmHg 40%
    17:00 +30°C° 0 mm 2 mps 753 mmHg 40%
    18:00 +30°C° 0 mm 2 mps 753 mmHg 41%
    19:00 +30°C° 0 mm 2 mps 753 mmHg 42%
    20:00 +29°C° 0 mm 2 mps 754 mmHg 43%
    21:00 +29°C° 0 mm 1 mps 754 mmHg 44%
    22:00 +28°C° 0 mm 1 mps 754 mmHg 46%
    23:00 +28°C° 0 mm 1 mps 753 mmHg 47%

    29 September, Saturday

    Time Temperature Precipitation Wind Pressure Humidity
    00:00 +27°C° 0 mm 1 mps 753 mmHg 48%
    01:00 +27°C° 0 mm 1 mps 753 mmHg 49%
    02:00 +27°C° 0 mm 1 mps 753 mmHg 50%
    03:00 +26°C° 0 mm 1 mps 753 mmHg 50%
    04:00 +26°C° 0 mm 1 mps 753 mmHg 51%
    05:00 +26°C° 0 mm 1 mps 753 mmHg 51%
    06:00 +26°C° 0 mm 2 mps 753 mmHg 51%
    07:00 +27°C° 0 mm 2 mps 753 mmHg 48%
    08:00 +28°C° 0 mm 2 mps 753 mmHg 44%
    09:00 +29°C° 0 mm 2 mps 754 mmHg 41%
    10:00 +29°C° 0 mm 2 mps 753 mmHg 39%
    11:00 +30°C° 0 mm 2 mps 753 mmHg 38%
    12:00 +31°C° 0 mm 2 mps 753 mmHg 36%
    13:00 +31°C° 0 mm 2 mps 752 mmHg 35%
    14:00 +32°C° 0 mm 2 mps 752 mmHg 34%
    15:00 +32°C° 0 mm 2 mps 752 mmHg 32%
    16:00 +32°C° 0 mm 2 mps 752 mmHg 33%
    17:00 +31°C° 0 mm 2 mps 752 mmHg 34%
    18:00 +31°C° 0 mm 2 mps 752 mmHg 35%
    19:00 +30°C° 0 mm 2 mps 753 mmHg 36%
    20:00 +30°C° 0 mm 2 mps 753 mmHg 37%
    21:00 +29°C° 0 mm 2 mps 753 mmHg 38%
    22:00 +29°C° 0 mm 2 mps 753 mmHg 39%
    23:00 +28°C° 0 mm 1 mps 753 mmHg 40%

    30 September, Sunday

    Time Temperature Precipitation Wind Pressure Humidity
    00:00 +28°C° 0 mm 1 mps 753 mmHg 41%
    01:00 +27°C° 0 mm 1 mps 753 mmHg 41%
    02:00 +27°C° 0 mm 1 mps 753 mmHg 42%
    03:00 +26°C° 0 mm 1 mps 753 mmHg 43%
    04:00 +26°C° 0 mm 1 mps 753 mmHg 43%
    05:00 +26°C° 0 mm 1 mps 754 mmHg 43%
    06:00 +26°C° 0 mm 1 mps 754 mmHg 43%
    07:00 +27°C° 0 mm 1 mps 754 mmHg 39%
    08:00 +28°C° 0 mm 2 mps 754 mmHg 35%
    09:00 +30°C° 0 mm 2 mps 754 mmHg 32%
    10:00 +30°C° 0 mm 2 mps 754 mmHg 30%
    11:00 +31°C° 0 mm 2 mps 754 mmHg 29%
    12:00 +32°C° 0 mm 2 mps 753 mmHg 27%
    13:00 +32°C° 0 mm 2 mps 753 mmHg 27%
    14:00 +32°C° 0 mm 2 mps 753 mmHg 26%
    15:00 +34°C° 0 mm 2 mps 752 mmHg 26%
    16:00 +32°C° 0 mm 2 mps 753 mmHg 27%
    17:00 +32°C° 0 mm 2 mps 753 mmHg 29%
    18:00 +31°C° 0 mm 2 mps 753 mmHg 30%
    19:00 +31°C° 0 mm 1 mps 753 mmHg 32%
    20:00 +30°C° 0 mm 1 mps 754 mmHg 33%
    21:00 +30°C° 0 mm 1 mps 754 mmHg 35%
    22:00 +29°C° 0 mm 1 mps 754 mmHg 36%
    23:00 +29°C° 0 mm 1 mps 754 mmHg 37%
    Show more